www.pogodaiklimat.ru
ПОГОДА в Бейтеме
Время
(UTC), дата
13 28.05
14 28.05
15 28.05
17 28.05
16 28.05
18 28.05
19 28.05
20 28.05
21 28.05
23 28.05
22 28.05
00 29.05
01 29.05
02 29.05
03 29.05
05 29.05
04 29.05
06 29.05
07 29.05
08 29.05
09 29.05
11 29.05
10 29.05
12 29.05
13 29.05
14 29.05
15 29.05
17 29.05
16 29.05
18 29.05
19 29.05
20 29.05
21 29.05
23 29.05
22 29.05
00 30.05
01 30.05
02 30.05
03 30.05
05 30.05
04 30.05
06 30.05
07 30.05
08 30.05
09 30.05
11 30.05
10 30.05
12 30.05
13 30.05
14 30.05
15 30.05
17 30.05
16 30.05
18 30.05
19 30.05
20 30.05
21 30.05
23 30.05
22 30.05
00 31.05
01 31.05
02 31.05
03 31.05
05 31.05
04 31.05
06 31.05
07 31.05
08 31.05
09 31.05
11 31.05
10 31.05
12 31.05
13 31.05
14 31.05
15 31.05
17 31.05
16 31.05
18 31.05
19 31.05
20 31.05
21 31.05
23 31.05
22 31.05
00 1.06
01 1.06
02 1.06
03 1.06
05 1.06
04 1.06
06 1.06
07 1.06
08 1.06
09 1.06
11 1.06
10 1.06
12 1.06
13 1.06
14 1.06
15 1.06
17 1.06
16 1.06
18 1.06
19 1.06
20 1.06
21 1.06
23 1.06
22 1.06
00 2.06
01 2.06
02 2.06
03 2.06
05 2.06
04 2.06
06 2.06
07 2.06
08 2.06
09 2.06
11 2.06
10 2.06
12 2.06
13 2.06
14 2.06
15 2.06
17 2.06
16 2.06
18 2.06
19 2.06
20 2.06
21 2.06
23 2.06
22 2.06
00 3.06
01 3.06
02 3.06
03 3.06
05 3.06
04 3.06
06 3.06
07 3.06
08 3.06
09 3.06
11 3.06
10 3.06
12 3.06
13 3.06
14 3.06
15 3.06
17 3.06
16 3.06
18 3.06
19 3.06
20 3.06
21 3.06
23 3.06
22 3.06
00 4.06
01 4.06
02 4.06
03 4.06
05 4.06
04 4.06
06 4.06
07 4.06
08 4.06
09 4.06
11 4.06
10 4.06
12 4.06
13 4.06
14 4.06
Ветер
(напр.,м/с)
Видим. Явления Облачность Т
(С)
Тd
(С)
f
(%)
Тe
(С)
Тes
(С)
Комфортность P
(гПа)
Po
(гПа)
Тmin
(С)
Tmax
(С)
R
(мм)
R24
(мм)
S
(см)
В 6 н/о н/о +20.5 +4.4 35 +21 +21 комфорт 1032.5 1029.4 248
В 5 н/о н/о +21.4 +5.8 36 +22 +22 комфорт 1031.7 1028.5 231
СВ 6
{10}
н/о н/о +21.6 +5.3 35 +22 +22 комфорт 1031.2 1028.1 203
СВ 6 н/о н/о +20.9 +5.6 37 +22 +22 комфорт 1030.4 1027.2 124
СВ 6
{10}
н/о н/о +21.2 +5.3 35 +22 +22 комфорт 1030.7 1027.6 166
СВ 5
{10}
н/о н/о +20.2 +6.3 40 +21 +21 комфорт 1030.2 1027.0 +21.6 78
С 5 н/о н/о +18.3 +9.0 55 +18 +18 1030.3 1027.1 34
С 4 н/о н/о +16.1 +9.5 65 +15 +15 1030.2 1027.0 5
СВ 3
{10}
н/о н/о +15.2 +9.3 68 +15 +15 1030.4 1027.2
СВ 4 н/о н/о +13.9 +8.3 69 +13 +13 1030.5 1027.3
СВ 4 н/о н/о +14.6 +9.0 69 +13 +13 1030.5 1027.3
СВ 4
{10}
н/о н/о +13.5 +7.1 65 +12 +12 1030.6 1027.3 226
СВ 3 н/о н/о +12.3 +6.4 67 +11 +11 1030.3 1027.1
СВ 3 н/о н/о +11.4 +6.0 69 +10 +10 1029.9 1026.6
СВ 3
{6}
н/о н/о +10.7 +5.6 71 +9 +9 1029.8 1026.5
СВ 4 н/о н/о +10.6 +5.9 73 +8 +8 1029.9 1026.6 9
СВ 3 н/о н/о +9.8 +5.5 75 +8 +8 1029.8 1026.5
В 4
{6}
н/о н/о +12.2 +6.1 66 +10 +10 1029.6 1026.4 +9.8 43
В 4 н/о н/о +13.8 +6.6 62 +12 +12 1029.4 1026.2 90
СВ 3 н/о н/о +16.2 +7.2 55 +16 +16 1029.2 1026.0 135
СВ 4
{7}
н/о н/о +17.7 +6.9 49 +17 +17 1028.8 1025.7 172
В 4 н/о н/о +20.3 +4.9 36 +21 +21 комфорт 1028.0 1024.9 234
В 4 н/о н/о +19.5 +5.3 39 +20 +20 1028.6 1025.5 207
СВ 4
{8}
н/о н/о +21.4 +2.9 30 +21 +21 комфорт 1027.3 1024.2 248
В 4 н/о н/о +21.8 +2.2 27 +22 +22 комфорт 1026.6 1023.5 247
СВ 4 н/о н/о +22.7 +1.8 25 +22 +22 комфорт 1025.8 1022.7 230
В 4
{8}
н/о н/о +22.6 +2.7 27 +22 +22 комфорт 1025.2 1022.1 200
С 6 н/о н/о +20.7 +7.4 42 +22 +22 комфорт 1024.5 1021.3 122
С 6 н/о н/о +21.7 +6.4 37 +22 +22 комфорт 1024.9 1021.8 162
С 6
{10}
н/о н/о +19.7 +7.6 45 +20 +20 1024.3 1021.2 +22.9 78
С 6 н/о н/о +18.4 +7.1 48 +18 +18 1024.0 1020.9 34
С 5 н/о н/о +16.7 +8.1 57 +16 +16 1024.0 1020.9 6
С 4
{9}
н/о н/о +15.3 +9.4 68 +14 +14 1024.2 1021.0
СВ 3 н/о н/о +14.9 +10.2 73 +14 +14 1024.1 1020.9
СВ 3 н/о н/о +14.8 +9.8 72 +14 +14 1024.1 1020.9
СВ 3
{9}
н/о н/о +14.2 +10.6 79 +13 +13 1024.4 1021.2 222
СВ 3 н/о н/о +13.5 +10.8 84 +12 +12 1024.2 1021.0
СВ 3 н/о н/о +12.6 +10.6 88 +11 +11 1024.0 1020.8
СВ 2
{5}
н/о н/о +12.2 +10.1 87 +11 +11 1023.8 1020.6
СВ 3 н/о н/о +12.6 +8.8 78 +11 +11 1023.5 1020.3 9
СВ 3 н/о н/о +11.4 +9.2 86 +10 +10 1023.8 1020.6
В 4
{6}
н/о н/о +14.3 +7.9 65 +13 +13 1023.6 1020.4 +11.2 43
В 3 н/о н/о +15.6 +7.8 60 +15 +15 1023.5 1020.4 90
В 3 н/о н/о +17.5 +7.4 51 +18 +18 1023.5 1020.4 134
В 4
{6}
н/о н/о +19.8 +6.6 42 +21 +21 комфорт 1023.4 1020.3 172
В 4 н/о н/о +22.4 +4.7 32 +23 +23 комфорт 1022.8 1019.7 234
В 5 н/о н/о +21.2 +6.5 38 +22 +22 комфорт 1023.3 1020.1 207
СВ 3
{9}
н/о н/о +22.7 +4.0 29 +23 +23 комфорт 1022.5 1019.4 247
В 4 н/о н/о +23.2 +3.4 27 +23 +23 комфорт 1021.9 1018.8 246
В 4 н/о н/о +24.1 +3.6 26 +23 +23 комфорт 1021.7 1018.6 230
ЮВ 4
{9}
н/о н/о +24.2 +3.4 26 +24 +24 комфорт 1021.1 1018.0 202
В 5 н/о н/о +24.0 +3.7 27 +24 +24 комфорт 1020.5 1017.4 124
В 4 н/о н/о +24.2 +4.2 27 +24 +24 комфорт 1020.8 1017.7 164
В 5
{9}
н/о н/о +23.5 +4.2 28 +23 +23 комфорт 1020.4 1017.3 +24.4 78
В 4 н/о н/о +22.7 +5.0 32 +23 +23 комфорт 1020.2 1017.1 35
СВ 3 н/о н/о +20.1 +8.2 46 +21 +21 комфорт 1020.7 1017.6 5
СВ 3
{7}
н/о н/о +18.3 +8.8 54 +19 +19 1021.2 1018.1
СВ 3 н/о н/о +16.0 +8.3 60 +16 +16 1021.8 1018.6
СВ 2 н/о н/о +16.7 +8.8 60 +17 +17 1021.5 1018.3
СВ 3
{7}
н/о н/о +15.5 +7.2 58 +15 +15 1021.9 1018.8 222
В 2 н/о н/о +14.7 +6.0 56 +15 +15 1022.0 1018.8
В 2 н/о н/о +13.6 +5.5 58 +13 +13 1022.1 1018.9
В 2
{4}
н/о н/о +13.1 +5.5 60 +13 +13 1022.1 1018.9
В 2 н/о н/о +13.8 +5.8 58 +13 +13 1022.8 1019.6 9
В 2 н/о н/о +12.3 +5.3 62 +12 +12 1022.5 1019.3
В 2
{5}
н/о н/о +15.5 +6.5 55 +16 +16 1022.7 1019.6 +12.3 42
В 4 н/о н/о +17.2 +6.4 49 +17 +17 1022.9 1019.8 88
В 4 н/о н/о +19.3 +6.1 42 +20 +20 1022.7 1019.6 133
СВ 6
{8}
н/о н/о +20.3 +5.4 38 +21 +21 комфорт 1022.8 1019.6 173
СВ 6 н/о н/о +21.4 +5.5 35 +22 +22 комфорт 1022.2 1019.1 229
СВ 5 н/о н/о +20.9 +5.8 37 +22 +22 комфорт 1022.5 1019.4 207
В 5
{10}
н/о н/о +21.4 +5.3 35 +22 +22 комфорт 1021.7 1018.6 245
В 5 н/о н/о +21.9 +5.2 34 +22 +22 комфорт 1021.3 1018.2 222
СВ 6 н/о н/о +22.5 +4.4 31 +23 +23 комфорт 1021.2 1018.1 218
СВ 5
{10}
н/о н/о +22.5 +3.8 29 +22 +22 комфорт 1020.9 1017.8 203
В 5 н/о н/о +22.2 +2.7 28 +22 +22 комфорт 1020.6 1017.5 125
В 6 н/о н/о +22.8 +3.2 28 +23 +23 комфорт 1020.7 1017.6 168
В 5
{10}
н/о н/о +21.7 +4.0 31 +22 +22 комфорт 1020.5 1017.4 +22.8 72
В 4 н/о н/о +21.0 +4.3 33 +22 +22 комфорт 1020.8 1017.7 33
В 4 н/о н/о +19.8 +4.9 38 +20 +20 1021.2 1018.1 6
СВ 2
{8}
н/о н/о +17.5 +5.8 46 +18 +18 1021.4 1018.2
В 3 н/о н/о +16.6 +6.4 51 +16 +16 1022.0 1018.8
СВ 4 н/о н/о +17.2 +6.3 49 +17 +17 1021.9 1018.7
СВ 2
{8}
н/о н/о +15.2 +6.5 56 +15 +15 1022.0 1018.8 218
СВ 2 н/о н/о +14.0 +6.5 61 +14 +14 1022.1 1018.9
СВ 3 н/о н/о +13.4 +6.6 63 +12 +12 1022.0 1018.8
СВ 2
{3}
н/о н/о +12.9 +6.7 66 +12 +12 1021.9 1018.7
СВ 2 н/о н/о +13.3 +7.5 68 +13 +13 1022.1 1018.9 10
СВ 2 н/о н/о +12.1 +6.8 70 +11 +11 1022.0 1018.8
СВ 2
{4}
н/о н/о +15.6 +8.2 61 +16 +16 1022.1 1018.9 +12.0 43
В 4 н/о н/о +17.7 +8.1 53 +17 +17 1022.2 1019.1 85
В 4 н/о н/о +19.5 +8.1 48 +20 +20 1022.1 1018.9 107
В 5
{7}
н/о н/о +20.2 +8.1 46 +21 +21 комфорт 1021.9 1018.8 162
В 5
{8}
н/о н/о +22.9 +7.8 38 +24 +24 комфорт 1021.5 1018.4 231
В 5 н/о н/о +21.8 +7.9 41 +23 +23 комфорт 1022.0 1018.9 209
СВ 5
{9}
н/о н/о +24.4 +7.8 35 +25 +25 комфорт 1021.0 1017.9 242
СВ 4 н/о н/о +24.9 +9.2 37 +26 +26 жарко 1020.7 1017.6 214
СВ 4 н/о н/о +25.2 +9.1 36 +26 +26 жарко 1020.3 1017.3 208
В 5
{10}
н/о н/о +26.2 +9.1 34 +27 +27 жарко 1020.0 1016.9 206
СВ 3 н/о н/о +25.5 +8.2 33 +26 +26 жарко 1019.3 1016.3 86
СВ 4 н/о н/о +26.5 +8.9 33 +27 +27 жарко 1019.6 1016.5 163
СВ 6
{10}
н/о н/о +24.2 +10.6 42 +25 +25 комфорт 1019.3 1016.2 +26.5 51
СВ 5 н/о н/о +23.6 +9.5 41 +25 +25 комфорт 1019.2 1016.2 43
С 4 н/о н/о +21.4 +10.9 51 +23 +23 комфорт 1019.9 1016.8 11
С 4
{10}
н/о н/о +18.4 +11.1 62 +19 +19 1020.4 1017.3
СВ 1 н/о н/о +16.0 +11.0 72 +17 +17 1020.8 1017.6
С 3 н/о н/о +17.2 +11.2 68 +17 +17 1020.4 1017.3
С 1
{10}
н/о н/о +14.7 +10.9 78 +15 +15 1020.4 1017.3 207
С 1 н/о н/о +13.4 +10.4 82 +14 +14 1020.3 1017.1
С 1 н/о н/о +12.5 +10.8 89 +12 +12 1020.0 1016.8
СЗ 1
{2}
н/о н/о +12.7 +11.8 94 +13 +13 1019.6 1016.4
СЗ 2 н/о н/о +12.7 +12.0 96 +12 +12 1019.7 1016.5 8
СЗ 2 н/о н/о +11.1 +10.5 96 +10 +10 1019.8 1016.6
СЗ 2
{3}
н/о н/о +15.5 +13.4 87 +15 +15 1019.7 1016.5 +11.1 45
н/о н/о +18.1 +13.5 74 1019.4 1016.3 85
С 2 н/о н/о +21.6 +12.1 55 +24 +24 комфорт 1019.0 1015.9 132
СВ 2
{4}
н/о н/о +23.9 +8.6 38 +25 +25 комфорт 1018.8 1015.7 169
С 3 н/о н/о +24.9 +10.9 41 +26 +26 жарко 1017.8 1014.8 222
СЗ 2 н/о н/о +24.7 +8.7 36 +25 +25 комфорт 1018.4 1015.4 199
СЗ 5
{8}
н/о н/о +25.2 +9.8 38 +26 +26 жарко 1017.7 1014.6 243
СЗ 5 н/о н/о +25.0 +9.7 38 +26 +26 жарко 1017.1 1014.1 243
СЗ 5 н/о н/о +25.0 +10.0 39 +26 +26 жарко 1016.8 1013.8 219
СЗ 5
{9}
н/о н/о +24.1 +10.3 42 +25 +25 комфорт 1016.3 1013.3 173
СЗ 5 н/о н/о +23.2 +7.3 36 +24 +24 комфорт 1015.2 1012.2 128
СЗ 5 н/о н/о +23.5 +9.0 40 +24 +24 комфорт 1015.8 1012.7 153
СЗ 4
{9}
н/о н/о +21.5 +7.7 41 +22 +22 комфорт 1015.0 1011.9 +25.3 73
СЗ 4 н/о н/о +19.9 +7.9 46 +21 +21 комфорт 1014.6 1011.5 24
СЗ 2 н/о н/о +18.1 +10.2 60 +19 +19 1014.4 1011.3 11
СЗ 2
{6}
н/о н/о +16.1 +11.9 76 +16 +16 1014.0 1010.9
СЗ 2 н/о н/о +13.4 +12.0 91 +13 +13 1013.0 1009.8
СЗ 1 н/о н/о +14.7 +12.0 84 +15 +15 1013.6 1010.4
З 2
{6}
н/о н/о +12.3 +11.5 95 +11 +11 1012.8 1009.6 213
З 1 н/о н/о +11.8 +11.6 99 +12 +12 1011.8 1008.6
З 1 н/о н/о +11.9 +11.9 100 +12 +12 1011.0 1007.8
СЗ 2
{3}
н/о н/о +11.2 +11.2 100 +10 +10 1010.4 1007.2
СЗ 3 н/о н/о +12.0 +12.0 100 +10 +10 1009.7 1006.6 7
СЗ 3 н/о н/о +11.3 +11.3 100 +9 +9 1010.0 1006.8
СЗ 3
{4}
н/о н/о +13.8 +12.9 94 +13 +13 1009.5 1006.4 +11.2 34
СЗ 3 н/о н/о +15.4 +12.6 83 +15 +15 1008.9 1005.8 81
СЗ 3 н/о н/о +17.3 +11.9 71 +17 +17 1008.6 1005.5 129
СЗ 4
{6}
н/о н/о +18.6 +10.2 58 +19 +19 1008.0 1004.9 146
С 4 н/о н/о +20.0 +10.3 54 +21 +21 комфорт 1007.3 1004.2 170
СЗ 4 н/о н/о +19.6 +9.9 53 +21 +21 комфорт 1007.7 1004.7 175
СЗ 4
{7}
н/о н/о +20.1 +10.8 55 +22 +22 комфорт 1006.5 1003.5 165
С 4 н/о н/о +20.6 +10.0 51 +22 +22 комфорт 1006.0 1003.0 186
С 4 н/о н/о +21.6 +9.7 47 +23 +23 комфорт 1005.6 1002.5 231
С 5
{8}
н/о н/о +21.3 +9.1 46 +23 +23 комфорт 1005.1 1002.0 193
С 6 н/о н/о +19.3 +9.7 54 +20 +20 1004.5 1001.4 126
С 5 н/о н/о +20.3 +9.1 49 +22 +22 комфорт 1004.8 1001.8 155
С 6
{10}
н/о н/о +17.7 +10.2 61 +17 +17 1004.5 1001.5 +21.6 82
С 6 н/о н/о +15.9 +10.2 69 +15 +15 1004.7 1001.6 38
С 5 н/о н/о +14.2 +11.4 83 +12 +12 1004.6 1001.4 6
С 6
{9}
н/о н/о +13.7 +11.2 85 +12 +12 1004.3 1001.2
С 5 н/о н/о +14.1 +11.3 83 +12 +12 1003.5 1000.4
С 6 н/о н/о +13.8 +11.1 84 +12 +12 1004.1 1000.9
С 5
{9}
н/о н/о +14.0 +11.2 83 +12 +12 1003.2 1000.1 193
С 6 н/о н/о +13.9 +11.3 84 +12 +12 1002.4 999.2
С 5 н/о н/о +13.9 +11.1 83 +12 +12 1001.7 998.6
С 5
{9}
н/о н/о +13.4 +10.8 84 +11 +11 1001.6 998.4
С 5 н/о н/о +13.5 +11.0 85 +12 +12 1000.9 997.8 11
С 5 н/о н/о +13.3 +10.9 85 +11 +11 1001.1 998.0
С 5
{9}
н/о н/о +14.1 +10.9 81 +12 +12 1000.7 997.6 +13.2 28
С 6 н/о н/о +14.5 +10.5 77 +13 +13 1000.7 997.6 42
С 5 н/о н/о +14.4 +10.4 77 +13 +13 1000.6 997.5 36
С 6
{10}
н/о н/о +14.3 +10.9 80 +12 +12 1000.6 997.5 55
С 7 н/о н/о +13.1 +11.1 88 +10 +10 1000.9 997.8 47
С 6 н/о н/о +15.6 +10.2 70 +14 +14 1000.6 997.5 92
С 6
{11}
н/о н/о +12.7 +11.4 92 +10 +10 1000.8 997.7 70
С 7 н/о н/о +13.7 +9.4 75 +11 +11 1000.9 997.8 92
С 7 н/о н/о +13.9 +7.7 66 +12 +12 1000.7 997.6 67
Местоположение метеостанции Бейтем (Бельгия): широта 50.90 долгота 3.12 высота над уровнем моря 22 м.
В архиве по умолчанию представлена погода в Бейтеме за последнюю неделю. Архивные данные за месяц целиком и за предыдущие месяцы, начиная с января 2011 года, Вы можете получить, выбрав интересующий диапазон дат из раскрывающегося списка и нажав кнопку "Найти!".
*Определитесь, кто Вы:
Внимание! Время в таблицах - всемирное. Для получения местного времени необходимо прибавить поправку, которая равна 1 ч.
Смотрите также архив погоды в соседних городах и на ближайших метеорологических станциях:
Партнеры нашего сайта:      
Пояснения к столбцам:
  • Ветер - указаны скорость ветра в м/с - средняя за 10 мин, порывы в срок и между сроками (в фигурных скобках) и направление, откуда дует ветер: С - северный,
  • СВ - северо-восточный, В - восточный, ЮВ - юго-восточный, Ю - южный, ЮЗ - юго-западный, З - западный, СЗ - северо-западный.
  • Видимость - горизонтальная дальность видимости в метрах или километрах. При видимости от 1 до 10 км при отсутствии осадков обычно наблюдается дымка, при ухудшении видимости до 1 км и менее - туман. В сухую погоду видимость может ухудшаться дымом, пылью или мглою.
  • Явления - указаны атмосферные явления, наблюдавшиеся в срок или в последний час перед сроком; фигурными скобками обозначены явления, наблюдавшиеся между сроками (за 1-3 часа до срока); квадратными скобками обозначены град или гололедные отложения с указанием их диаметра в мм.
  • Облачность - указаны через наклонную черту общая и нижняя облачность в баллах и высота нижней границы облаков в метрах; квадратными скобками обозначены формы облаков: Ci - перистые, Cs - перисто-слоистые, Cc - перисто-кучевые, Ac - высококучевые, As - высокослоистые, Sc - слоисто-кучевые, Ns - слоисто-дождевые, Cu - кучевые, Cb - кучево-дождевые. Подробнее классификацию облаков см. в Атласе облаков (PDF).
  • T - Температура воздуха - температура, измеренная на высоте 2 м над землей.
  • Td - Температура точки росы - температура, при понижении до которой содержащийся в воздухе водяной пар достигнет насыщения.
  • f - Относительная влажность воздуха - влажноcть воздуха, измеренная на высоте 2 м над землей.
  • Te - Эффективная температура - температура, которую ощущает одетый по сезону человек в тени. Характеристика душности погоды. При расчете учитывается влияние влажности воздуха и скорости ветра на теплоощущения человека.
  • Tes - Эффективная температура на солнце - температура, которую ощущает человек, с поправкой на солнечный нагрев. Характеристика знойности погоды. Зависит от высоты солнца над горизонтом, облачности и скорости ветра. Ночью, в пасмурную погоду, а также при ветре 12 м/с и более поправка равна нулю.
  • P - Атмосферное давление - приведенное к уровню моря атмосферное давление.
  • Po - Атмосферное давление - измеренное на уровне метеостанции атмосферное давление.
  • Tmin - Минимальная температура - минимум температуры воздуха на высоте 2 м над землей.
  • Tmax - Максимальная температура - максимум температуры воздуха на высоте 2 м над землей.
  • R - Количество осадков - Количество выпавших осадков за период времени, мм. При наведении курсора мыши на число - период времени, за который выпало указанное количество осадков.
  • R24 - Количество осадков - Количество выпавших осадков за 24 часа, мм.
  • S - Снежный покров - Высота снежного покрова, см. При наведении курсора мыши на число - состояние снежного покрова и степень покрытия местности в баллах.